Location: Newark
(45.9456°N, 15.4064°E)
Time: 14:56:37
(UTC+00:00)

SR - Pass Details

Date: 31 January 2020
Orbit: 575 x 880 km, 66.7° (Epoch: 22 February)

Event Time Altitude Azimuth Distance (km) Brightness Sun altitude
Rises 04:32:03 0° 326° (NW) 3,392 - -19.3°
Reaches altitude 10° 04:34:36 10° 325° (NW) 2,416 - -18.9°
Exits shadow 04:36:16 20° 324° (NW) 1,792 ? -18.6°
Maximum altitude 04:40:10 82° 239° (WSW) 782 ? -17.9°
Drops below altitude 10° 04:45:14 10° 153° (SSE) 2,201 ? -17.0°
Sets 04:47:28 0° 152° (SSE) 3,068 ? -16.6°
